STARLINK-11277 [DTC]

Last updated on Fri Oct 04 2024 00:02:04 GMT+0000 (Coordinated Universal Time)

1 61205U 24171F 24277.58334491 -.00935812 00000+0 -48879-2 0 9995 2 61205 53.1628 231.5085 0000673 125.2555 332.4733 15.82509867 3285
UTC large
Height (km)
Speed (km/s)
/
Latitude / Longitude
Inclination (degrees)
Orbital Period (minutes)
Azimuth
Elevation
Range (km)
Doppler Factor

Next 0 passes for location: London (51.5072 / 0.1276)

Sorry there are no passes over London.